Location: Saiz Place
(34.6523°N, 106.3270°W)
Time: 16:38:52
(UTC+00:00)

Daily predictions for brighter satellites

Satellite Brightness Start Highest point End
(mag) Time Altitude Azimuth Time Altitude Azimuth Time Altitude Azimuth
SJ 16-02 1.6 12:01:07 10° S 12:05:26 66° ESE 12:09:47 10° NNE
SJ-12 3.8 12:02:17 10° NNE 12:06:27 87° ESE 12:10:34 10° SSW
OAO 2 Rocket 4.2 12:04:47 29° SSW 12:07:02 47° SSE 12:11:58 10° E
Cosmos 1354 Rocket 4.1 12:08:21 51° NW 12:08:21 51° NW 12:13:08 10° N
H-2A R/B 2.7 12:13:51 63° SW 12:13:51 63° SW 12:17:09 10° SSW
DELTA 2 R/B (1) 3.9 12:12:08 41° NW 12:13:29 51° N 12:18:53 10° ENE
Cosmos 1515 Rocket 4.4 12:11:43 10° N 12:15:56 49° E 12:20:08 10° SSE
Meteor 1-31 Rocket 2.6 12:20:56 10° N 12:24:51 79° WNW 12:28:45 10° SSW
Meteor 2-6 Rocket 4.1 12:21:15 18° NNW 12:25:15 61° W 12:30:35 10° S
Cosmos 1833 4.1 12:22:38 24° NNW 12:26:12 70° WSW 12:31:54 10° S
Cosmos 1500 Rocket 4.0 12:24:19 10° S 12:28:43 66° E 12:33:09 10° NNE
SL-4 R/B 1.4 12:28:17 48° WSW 12:29:08 80° NW 12:32:44 10° NE
SL-27 R/B 2.8 12:27:43 23° N 12:29:47 65° ENE 12:33:14 10° SSE
Cosmos 2279 Rocket 4.0 12:25:58 10° NNW 12:32:00 56° W 12:38:01 10° SSW
SKYMED 2 3.4 12:27:50 10° S 12:32:10 84° WSW 12:36:29 10° NNW
Nadezhda 4 Rocket 3.9 12:28:56 10° S 12:35:06 84° W 12:41:21 10° N
Meteor 2-15 4.3 12:29:48 10° N 12:35:52 82° W 12:41:54 10° S
Cosmos 1151 Rocket 3.9 12:37:30 28° W 12:37:30 28° W 12:40:58 10° SSW
CZ-2C R/B 2.6 12:34:06 10° S 12:39:34 71° WSW 12:44:56 10° NNW
H-2A R/B (2) 3.9 12:36:47 11° SW 12:41:02 50° SSE 13:02:38 10° E
H-2A R/B 4.4 12:38:03 10° ESE 12:41:26 23° ENE 12:44:54 10° NNE
MOS 1-B Rocket 4.2 12:36:31 10° S 12:42:35 47° W 12:48:07 10° NNW
ADEOS 3.5 12:37:26 10° NNE 12:42:41 90° W 12:47:54 10° SSW
Meteor 2-19 Rocket 4.4 12:39:30 10° SSW 12:45:27 60° W 12:51:26 10° N
BREEZE-M DEB 3.3 12:44:32 30° W 12:45:45 45° NNW 12:52:15 10° NE
Cosmos 783 Rocket 4.4 12:41:50 12° NNW 12:46:40 65° WSW 12:51:48 10° S
Cosmos 1602 4.2 12:44:58 10° S 12:48:42 63° E 12:52:28 10° NNE
Cosmos 1777 Rocket 4.4 12:45:57 10° SW 12:50:47 38° WNW 12:55:39 10° N
Cosmos 1092 Rocket 4.1 12:49:03 10° S 12:55:17 81° E 13:01:36 10° N
Cosmos 773 Rocket 4.0 12:50:38 10° NNW 12:55:45 60° WSW 13:00:47 10° S
Cosmos 1500 4.1 12:56:01 10° S 12:59:42 52° E 13:03:24 10° NNE
BREEZE-M DEB (TANK) 4.1 12:47:51 13° NW 13:00:19 49° WSW 13:04:49 10° SSE
Meteor PRIRODA 3.5 12:56:42 10° N 13:00:20 84° WNW 13:03:58 10° SSW
Cosmos 1656 4.2 12:56:21 10° S 13:01:40 61° ESE 13:07:01 10° NNE
IRAS Rocket 4.5 12:57:17 10° SSE 13:02:44 72° ENE 13:08:12 10° N
Cosmos 158 Rocket 4.3 13:01:09 10° NNW 13:06:21 71° ENE 13:11:38 10° SSE
USA 32 4.1 13:04:00 10° N 13:09:16 85° E 13:14:31 10° S
Cosmos 2227 Rocket 4.5 13:05:54 10° N 13:10:02 20° ENE 13:14:08 10° ESE
CZ-2C R/B 3.0 13:05:22 10° N 13:10:22 71° WNW 13:15:37 10° SSW
Envisat 4.1 13:09:03 10° NNW 13:12:46 21° WNW 13:16:28 10° WSW
ASTRO E2 4.2 13:11:01 10° SW 13:14:36 33° SSE 13:18:12 10° E
Lacrosse 5 2.0 13:09:40 10° SW 13:14:45 84° SE 13:19:52 10° NE
FengYun 1-2 T 4.4 13:11:01 10° NNE 13:16:31 82° ESE 13:22:00 10° S
Cosmos 1515 3.6 13:13:03 10° N 13:16:51 75° W 13:20:38 10° S
Centaur D-1A AC-35 3.9 13:14:48 10° SW 13:18:02 27° S 13:21:58 10° ESE
Meteor 2-14 Rocket 4.5 13:13:27 10° S 13:19:36 88° W 13:25:47 10° N
COSMO-SKYMED 1 3.8 13:16:59 10° SSW 13:20:21 22° W 13:23:43 10° NW
Meteor 1-20 Rocket 4.3 13:15:01 10° SSW 13:20:26 54° W 13:26:00 10° N
SL-8 R/B 4.2 13:16:15 11° WNW 13:20:34 47° SW 13:25:07 10° SSE
COSMOS 2487 2.3 13:17:44 10° NNW 13:21:03 68° WSW 13:24:21 10° S
Cosmos 1633 Rocket 4.3 13:17:26 10° SSE 13:21:34 46° E 13:25:43 10° NNE
NOAA 6 4.3 13:18:42 10° NNE 13:23:49 76° ESE 13:28:56 10° S
FALCON 9 R/B 3.9 13:03:47 12° WNW 13:24:16 64° SSW 13:30:05 10° SE
ATLAS 3B R/B 3.4 13:19:49 10° WSW 13:25:25 30° NW 13:31:16 10° NNE
SMAP 3.1 13:21:11 10° NNE 13:25:52 89° ESE 13:30:30 10° SSW
CZ-4C R/B 4.0 13:25:28 10° SSW 13:28:01 23° W 13:30:35 10° NW
Cosmos 1666 3.2 13:24:44 10° S 13:28:28 64° E 13:32:12 10° NNE
DMSP B5D2-2 4.1 13:23:49 10° S 13:28:57 61° W 13:34:06 10° NNW
Cosmos 1697 Rocket 3.7 13:28:41 10° S 13:34:08 54° ESE 13:39:36 10° NNE
NOSS 3-1 (C) 4.4 13:29:26 10° S 13:34:12 46° ESE 13:39:34 10° NE
EO 1 Delta rocket 4.1 13:29:12 10° N 13:34:52 84° W 13:39:37 10° SSW
